Miscellaneous Local Product
Issued by NWS North Platte, NE

Home | Current Version | Previous Version | Text Only | Print | Product List | Glossary On
Versions: 1 2 3 4 5 6 7 8 9 10 11 12 13 14 15 16 17 18 19 20 21 22 23 24 25 26 27 28 29 30 31 32 33 34 35 36 37 38 39 40 41 42 43 44 45 46 47 48 49 50
000
AXUS43 KLBF 220210
MISLBF


WESTERN AND NORTH CENTRAL NEBRASKA HOURLY WEATHER ROUNDUP
NATIONAL WEATHER SERVICE NORTH PLATTE NE
800 PM CST SUN DEC 21 2014

***STATIONS NOT REPORTING VARIABLES SUCH AS SKY/WEATHER OR
PRESSURE ARE PROVIDED BY THE NEBRASKA DEPARTMENT OF
ROADS...RAWS...AND APRS NETWORKS...AND ARE NOT UNDER
NATIONAL WEATHER SERVICE QUALITY CONTROL***

...OBSERVATIONS IN AND NEAR THE EASTERN PANHANDLE OF NEBRASKA...

CITY           SKY/WX    TMP DP  RH WIND       PRES   REMARKS
PINE RIDGE     CLOUDY    39  30  70 W6        29.45R WCI  35
CHADRON        PTCLDY    32  28  85 W7        29.48R WCI  26
ALLIANCE       PTCLDY    32  30  92 W6        29.48S WCI  26
SIDNEY         MOCLDY    38  31  76 W9        29.52S WCI  31
WHITECLAY        N/A     38  29  68 W9          N/A  WCI  32
CRESCENT LAKE    N/A     38  31  74 W8          N/A  WCI  32
LISCO            N/A     36  29  77 W6          N/A  WCI  31
BIG SPRINGS      N/A     36  32  86 SW8         N/A  WCI  30
$$

...OBSERVATIONS IN NORTH CENTRAL NEBRASKA...

CITY           SKY/WX    TMP DP  RH WIND       PRES   REMARKS
VALENTINE      CLOUDY    37  31  78 SW8       29.42R WCI  31
THEDFORD       MOCLDY    36  33  89 S12       29.46R WCI  28
AINSWORTH      CLOUDY    36  32  84 S14       29.44R WCI  27
O`NEILL        DRIZZLE   38  37  98 S15G22    29.50R WCI  29
BROKEN BOW     CLOUDY    38  35  89 S9        29.51F WCI  31
BROWNLEE         N/A     38  30  72 S13         N/A  WCI  31
SPRINGVIEW       N/A     38  33  81 CALM        N/A
BREWSTER         N/A     37  35  94 S14         N/A  WCI  28
ROSE             N/A     37  37  99 E14         N/A  WCI  29
SARGENT          N/A     37  36  95 CALM        N/A
COMSTOCK         N/A     39  39  99 S10         N/A  WCI  32
CHAMBERS         N/A     37  36  98 S10         N/A  WCI  30
EWING            N/A     38  37  97 CALM        N/A
$$

...OBSERVATIONS IN SOUTHWEST NEBRASKA AND FAR NORTHEAST COLORADO...

CITY           SKY/WX    TMP DP  RH WIND       PRES   REMARKS
WRAY           CLOUDY    39  33  80 W7        29.52S WCI  34
HOLYOKE        FAIR      37  32  81 W8        29.52R WCI  31
IMPERIAL       CLOUDY    37  31  78 CALM      29.50F
OGALLALA       CLOUDY    40  33  77 NW6       29.49F
NORTH PLATTE   CLOUDY    35  31  85 S9        29.50F WCI  28
MCCOOK         CLOUDY    38  34  85 S6        29.53F WCI  33
LEXINGTON      CLOUDY    40  37  87 SW6       29.54S
PAXTON           N/A     37  33  85 CALM        N/A
BRADY            N/A     36  33  88 CALM        N/A
GOTHENBURG       N/A     39  35  85 S8          N/A  WCI  33
CALLAWAY         N/A     35  34  96 S16         N/A  WCI  25
$$

...NORTH PLATTE AREA...

CITY           SKY/WX    TMP DP  RH WIND       PRES   REMARKS
AIRPORT        CLOUDY    35  31  85 S9        29.50F WCI  28
DOWNTOWN         N/A     35  31  85 SE3         N/A
$$

...SOME WEATHER OBSERVATIONS FROM AROUND THE REGION...

CITY           SKY/WX    TMP DP  RH WIND       PRES   REMARKS
DENVER         MOCLDY    43  26  51 SW9       29.57R
LARAMIE        MOCLDY    34  29  82 NW25G35   29.59R WCI  21
CHEYENNE       CLOUDY    38  31  76 NW18G30   29.56R WCI  28
SCOTTSBLUFF    MOCLDY    36  30  79 CALM      29.51R
RAPID CITY     MOCLDY    39  34  82 N12       29.44F WCI  32
PIERRE         CLOUDY    29  27  92 NE6       29.40S WCI  23
WINNER         MOCLDY    41  31  67 S14       29.41R
SIOUX FALLS    CLOUDY    38  37  97 S17G26    29.56F WCI  28
OMAHA          DRIZZLE   42  41  96 S17       29.70F FOG
GRAND ISLAND   CLOUDY    40  38  93 S16       29.58F WCI  31
KANSAS CITY    CLOUDY    44  40  85 SE15      29.77F
WICHITA        CLOUDY    45  42  89 S21       29.69S
HAYS           CLOUDY    41  34  75 S10       29.60F
LIBERAL        PTCLDY    41  32  70 SE7       29.57F
GOODLAND       CLOUDY    40  32  73 W10       29.54S WCI  33
$$



USA.gov is the U.S. government's official web portal to all federal, state and local government web resources and services.